Previsão horária em Almalo

Hoje, 19 Janeiro, Terça-feira

Tempo Temperatura Precipitação Vento Pressão Humidade
00:00 -1°C° 0 mm 5 m/s 760 mmHg 67%
01:00 -2°C° 0 mm 5 m/s 760 mmHg 69%
02:00 -2°C° 0 mm 5 m/s 760 mmHg 72%
03:00 -4°C° 0 mm 5 m/s 760 mmHg 76%
04:00 -4°C° 0 mm 6 m/s 761 mmHg 76%
05:00 -4°C° 0 mm 6 m/s 762 mmHg 76%
06:00 -4°C° 0 mm 6 m/s 762 mmHg 76%
07:00 -4°C° 0 mm 6 m/s 763 mmHg 74%
08:00 -4°C° 0 mm 6 m/s 763 mmHg 72%
09:00 -3°C° 0 mm 6 m/s 763 mmHg 67%
10:00 -3°C° 0 mm 6 m/s 763 mmHg 64%
11:00 -1°C° 0 mm 5 m/s 763 mmHg 62%
12:00 -1°C° 0 mm 4 m/s 763 mmHg 59%
13:00 0°C° 0 mm 3 m/s 763 mmHg 58%
14:00 0°C° 0 mm 3 m/s 763 mmHg 57%
15:00 +1°C° 0 mm 2 m/s 762 mmHg 56%
16:00 +2°C° 0 mm 1 m/s 763 mmHg 58%
17:00 +2°C° 0 mm 1 m/s 763 mmHg 59%
18:00 +2°C° 0 mm 1 m/s 764 mmHg 61%
19:00 +1°C° 0 mm 1 m/s 764 mmHg 63%
20:00 -1°C° 0 mm 2 m/s 764 mmHg 64%
21:00 -1°C° 0 mm 2 m/s 764 mmHg 66%
22:00 -1°C° 0 mm 2 m/s 764 mmHg 68%
23:00 -1°C° 0 mm 2 m/s 764 mmHg 70%

Amanhã, 20 Janeiro, Quarta-feira

Tempo Temperatura Precipitação Vento Pressão Humidade
00:00 -1°C° 0 mm 2 m/s 764 mmHg 73%
01:00 -1°C° 0 mm 2 m/s 764 mmHg 74%
02:00 -1°C° 0 mm 2 m/s 764 mmHg 76%
03:00 -1°C° 0 mm 2 m/s 764 mmHg 78%
04:00 -1°C° 0.2 mm 2 m/s 764 mmHg 81%
05:00 +1°C° 0.2 mm 1 m/s 764 mmHg 84%
06:00 +1°C° 0.2 mm 1 m/s 764 mmHg 87%
07:00 +1°C° 0.4 mm 1 m/s 765 mmHg 86%
08:00 +1°C° 0.4 mm 1 m/s 765 mmHg 85%
09:00 -1°C° 0.4 mm 2 m/s 765 mmHg 83%
10:00 -1°C° 0.2 mm 2 m/s 765 mmHg 83%
11:00 -1°C° 0.2 mm 2 m/s 765 mmHg 83%
12:00 -1°C° 0.2 mm 3 m/s 765 mmHg 83%
13:00 -1°C° 0.4 mm 3 m/s 765 mmHg 82%
14:00 -1°C° 0.4 mm 3 m/s 765 mmHg 82%
15:00 -1°C° 0.4 mm 2 m/s 765 mmHg 81%
16:00 -1°C° 0.3 mm 2 m/s 766 mmHg 83%
17:00 -1°C° 0.3 mm 2 m/s 766 mmHg 85%
18:00 -2°C° 0.3 mm 2 m/s 767 mmHg 86%
19:00 -2°C° 0.2 mm 2 m/s 767 mmHg 87%
20:00 -2°C° 0.2 mm 2 m/s 767 mmHg 88%
21:00 -2°C° 0.2 mm 2 m/s 768 mmHg 90%
22:00 -3°C° 0.2 mm 2 m/s 768 mmHg 91%
23:00 -3°C° 0.2 mm 2 m/s 768 mmHg 92%

Depois de amanhã, 21 Janeiro, Quinta-feira

Tempo Temperatura Precipitação Vento Pressão Humidade
00:00 -4°C° 0.2 mm 3 m/s 769 mmHg 92%
01:00 -4°C° 0 mm 2 m/s 769 mmHg 92%
02:00 -4°C° 0 mm 2 m/s 769 mmHg 91%
03:00 -4°C° 0 mm 2 m/s 769 mmHg 90%
04:00 -4°C° 0 mm 2 m/s 769 mmHg 88%
05:00 -5°C° 0 mm 2 m/s 770 mmHg 87%
06:00 -5°C° 0 mm 2 m/s 770 mmHg 85%
07:00 -4°C° 0 mm 2 m/s 770 mmHg 85%
08:00 -4°C° 0 mm 2 m/s 771 mmHg 86%
09:00 -5°C° 0 mm 3 m/s 771 mmHg 86%
10:00 -4°C° 0.1 mm 3 m/s 771 mmHg 83%
11:00 -4°C° 0.1 mm 3 m/s 771 mmHg 79%
12:00 -2°C° 0.1 mm 3 m/s 771 mmHg 76%
13:00 -2°C° 0 mm 3 m/s 771 mmHg 74%
14:00 -2°C° 0 mm 3 m/s 771 mmHg 72%
15:00 -1°C° 0 mm 3 m/s 771 mmHg 70%
16:00 -2°C° 0 mm 3 m/s 772 mmHg 72%
17:00 -3°C° 0 mm 2 m/s 772 mmHg 74%
18:00 -1°C° 0 mm 1 m/s 773 mmHg 76%
19:00 -2°C° 0 mm 1 m/s 773 mmHg 74%
20:00 -2°C° 0 mm 1 m/s 773 mmHg 73%
21:00 -2°C° 0 mm 1 m/s 774 mmHg 72%
22:00 -2°C° 0 mm 1 m/s 774 mmHg 71%
23:00 -2°C° 0 mm 1 m/s 774 mmHg 70%

22 Janeiro, Sexta-feira

Tempo Temperatura Precipitação Vento Pressão Humidade
00:00 -2°C° 0 mm 1 m/s 773 mmHg 69%
01:00 -1°C° 0 mm 1 m/s 773 mmHg 67%
02:00 -3°C° 0 mm 2 m/s 773 mmHg 65%
03:00 -3°C° 0 mm 2 m/s 773 mmHg 63%
04:00 -3°C° 0 mm 2 m/s 773 mmHg 60%
05:00 -2°C° 0 mm 2 m/s 773 mmHg 57%
06:00 -2°C° 0 mm 2 m/s 772 mmHg 54%
07:00 -1°C° 0 mm 2 m/s 772 mmHg 52%
08:00 +1°C° 0 mm 2 m/s 772 mmHg 51%
09:00 +2°C° 0 mm 2 m/s 773 mmHg 49%
10:00 +3°C° 0 mm 2 m/s 772 mmHg 50%
11:00 +5°C° 0 mm 1 m/s 772 mmHg 51%
12:00 +6°C° 0 mm 1 m/s 771 mmHg 52%
13:00 +6°C° 0 mm 1 m/s 771 mmHg 52%
14:00 +5°C° 0 mm 2 m/s 770 mmHg 51%
15:00 +5°C° 0 mm 2 m/s 770 mmHg 50%
16:00 +5°C° 0 mm 2 m/s 770 mmHg 50%
17:00 +4°C° 0 mm 2 m/s 770 mmHg 49%
18:00 +3°C° 0 mm 2 m/s 771 mmHg 48%
19:00 +3°C° 0 mm 2 m/s 771 mmHg 48%
20:00 +3°C° 0 mm 2 m/s 771 mmHg 47%
21:00 +2°C° 0 mm 2 m/s 771 mmHg 46%
22:00 +2°C° 0 mm 2 m/s 771 mmHg 46%
23:00 +2°C° 0 mm 2 m/s 770 mmHg 46%

23 Janeiro, Sábado

Tempo Temperatura Precipitação Vento Pressão Humidade
00:00 +2°C° 0 mm 2 m/s 770 mmHg 47%
01:00 +2°C° 0 mm 2 m/s 770 mmHg 48%
02:00 +2°C° 0 mm 2 m/s 770 mmHg 49%
03:00 +1°C° 0 mm 3 m/s 769 mmHg 50%
04:00 +2°C° 0 mm 2 m/s 769 mmHg 53%
05:00 +2°C° 0 mm 2 m/s 769 mmHg 55%
06:00 +1°C° 0 mm 2 m/s 769 mmHg 57%
07:00 +2°C° 0 mm 2 m/s 769 mmHg 58%
08:00 +3°C° 0 mm 2 m/s 769 mmHg 58%
09:00 +3°C° 0 mm 2 m/s 769 mmHg 58%
10:00 +3°C° 0 mm 3 m/s 769 mmHg 61%
11:00 +4°C° 0 mm 3 m/s 768 mmHg 64%
12:00 +5°C° 0 mm 4 m/s 767 mmHg 67%
13:00 +5°C° 0 mm 3 m/s 767 mmHg 68%
14:00 +6°C° 0 mm 2 m/s 767 mmHg 70%
15:00 +7°C° 0 mm 1 m/s 766 mmHg 72%
16:00 +6°C° 0 mm 1 m/s 766 mmHg 74%
17:00 +5°C° 0 mm 1 m/s 766 mmHg 77%
18:00 +3°C° 0 mm 2 m/s 767 mmHg 80%
19:00 +3°C° 0 mm 2 m/s 767 mmHg 81%
20:00 +2°C° 0 mm 2 m/s 767 mmHg 81%
21:00 +2°C° 0 mm 2 m/s 767 mmHg 81%
22:00 +2°C° 0 mm 2 m/s 766 mmHg 79%
23:00 +2°C° 0 mm 2 m/s 766 mmHg 77%

24 Janeiro, Domingo

Tempo Temperatura Precipitação Vento Pressão Humidade
00:00 +2°C° 0 mm 1 m/s 765 mmHg 75%
01:00 +2°C° 0 mm 1 m/s 765 mmHg 72%
02:00 +2°C° 0 mm 1 m/s 765 mmHg 69%
03:00 +2°C° 0 mm 1 m/s 765 mmHg 67%
04:00 +2°C° 0 mm 1 m/s 765 mmHg 68%
05:00 +2°C° 0 mm 1 m/s 765 mmHg 69%
06:00 +2°C° 0 mm 1 m/s 764 mmHg 70%
07:00 +3°C° 0 mm 1 m/s 765 mmHg 67%
08:00 +3°C° 0 mm 2 m/s 765 mmHg 65%
09:00 +4°C° 0 mm 2 m/s 765 mmHg 62%
10:00 +5°C° 0 mm 2 m/s 764 mmHg 60%
11:00 +5°C° 0 mm 3 m/s 764 mmHg 58%
12:00 +7°C° 0 mm 3 m/s 763 mmHg 56%
13:00 +7°C° 0 mm 3 m/s 763 mmHg 58%
14:00 +7°C° 0 mm 3 m/s 762 mmHg 59%
15:00 +6°C° 0 mm 4 m/s 762 mmHg 60%
16:00 +4°C° 0 mm 3 m/s 762 mmHg 63%
17:00 +4°C° 0 mm 2 m/s 762 mmHg 66%
18:00 +3°C° 0 mm 2 m/s 763 mmHg 69%
19:00 +4°C° 0 mm 1 m/s 763 mmHg 69%
20:00 +4°C° 0 mm 1 m/s 763 mmHg 68%
21:00 +3°C° 0 mm 0 m/s 763 mmHg 68%
22:00 +4°C° 0 mm 1 m/s 763 mmHg 68%
23:00 +4°C° 0 mm 1 m/s 762 mmHg 68%
Mostrar mais

Necessitamos do seu Consentimento

A Meteoprog e os seus Fornecedores de Serviços podem armazenar e aceder a dados pessoais como cookies, identificadores do dispositivo ou outras tecnologias semelhantes existentes no seu dispositivo e processar estes dados para personalizar conteúdos e anúncios, assim como funcionalidades nas redes sociais e análise de tráfego.

  • Armazenar e/ou aceder a informações no seu dispositivo

    Os cookies, identificadores do dispositivo ou outras informações podem ser armazenados ou acedidos no seu dispositivo, para os fins acima indicados.

  • Anúncios e conteúdos personalizados, medição de anúncios e conteúdos, dados sobre o público-alvo e desenvolvimento de produtos

    Os anúncios e os conteúdos podem ser personalizados com base num perfil. Podem ser adicionados dados adicionais para uma maior personalização dos anúncios e dos conteúdos. A eficácia dos anúncios e dos conteúdos pode ser medida. Podem ser obtidas informações sobre o público que visualizou os anúncios e os conteúdos. Estes dados podem ser usados para desenvolver ou melhorar sistemas, softwares ou a experiência do utilizador.

Ao clicar em "Eu concordo”, permitirá o uso de cookies, identificadores do dispositivo e web beacons mencionados ou outras tecnologias semelhantes. As configurações do navegador do seu dispositivo podem ser alteradas.

Para certos fins, podem ser invocados interesses legítimos ao invés de consentimento. Pode ler mais informação sobre este assunto na nossa Política de Privacidade e Cookies.